Vertical_Velocity
-1 8 0 1 1 2 3 5 3 -7 -5 12 -1 -2 -6 -6 -2 -2 -2 1 4 8 7 11 -6 36 -10 0 3 8 7 7 6 1 -0 -4 -7 -5 2 -4 0 -0 -4 -2
7 1 1 0 1 2 1 3 -9 -8 -1 14 -3 -10 -6 -1 4 5 1 -3 -2 -4 -6 -7 -5 -4 2 2 0 2 -1 6 1 6 4 -3 2 2 6 5 -2 -3 -1 -5
3 4 0 3 -1 4 -2 4 -2 12 -5 -5 2 -12 -5 -8 1 -11 -6 0 1 3 -3 -5 -2 5 -1 0 -1 -5 3 26 8 7 10 11 10 11 1 -2 1 -2 4 -1
1 0 1 0 0 5 3 0 2 1 4 3 9 -10 -7 -1 -3 -3 -3 -3 -2 -1 -3 -1 -2 -0 3 2 0 -2 3 1 11 9 16 13 -18 -7 1 5 5 3 2 -1
11 0 0 2 -1 2 -1 2 3 2 2 9 -8 10 -5 -3 -8 -5 -3 -2 0 0 3 1 3 -0 4 1 2 2 0 8 4 22 2 20 7 -0 5 1 2 -0 2 5
-4 -1 3 -6 -1 1 -0 1 1 1 4 5 -0 9 5 1 9 -5 -5 -2 2 -0 -1 -2 5 5 3 -0 3 5 1 5 -1 6 10 -0 3 7 2 2 0 -2 2 -1
1 -1 -0 4 7 3 3 3 -0 3 7 -3 -0 3 11 1 1 6 4 -1 1 2 -6 -0 4 4 2 -1 1 4 5 8 10 6 1 2 11 2 1 3 -0 1 1 -8
2 12 2 1 3 7 -0 6 5 1 2 -1 -2 1 10 4 2 2 2 5 2 -1 -3 2 4 8 2 2 2 -0 13 5 2 14 13 11 5 4 6 4 1 -2 0 2
-0 -0 2 2 -0 6 4 2 0 4 -0 7 -0 5 3 -3 -4 -4 -3 -4 -1 -0 -2 -2 3 6 5 2 5 9 0 3 13 2 3 4 3 3 0 -2 -1 -2 11 -6
3 0 -1 2 2 -1 5 1 9 3 2 -2 2 1 4 -5 -2 -2 -4 -1 -1 -1 -3 -4 2 6 6 4 7 6 4 1 10 -10 0 6 2 -1 -3 -1 1 9 -9 1
-0 5 1 4 1 2 3 4 4 5 4 2 1 8 4 3 3 2 2 1 2 2 -0 4 2 4 6 5 14 9 7 4 1 1 -17 14 -1 -0 4 4 -3 -14 2 -21
0 0 0 -1 0 2 1 -3 -0 5 -0 0 2 9 2 2 2 1 2 -0 0 2 0 5 -3 4 5 5 7 2 -1 3 4 8 8 27 16 7 4 -4 -1 -4 -4 0
2 2 -0 1 9 -2 1 -1 0 2 2 -2 4 10 1 -1 -2 1 0 -0 0 2 0 -0 -7 1 6 4 3 0 -0 -3 6 4 1 -7 -8 -8 -4 -7 -7 -5 -1 -1
2 -0 2 3 4 4 -1 -2 -1 4 3 1 3 3 0 -0 0 -1 -2 0 2 1 -1 0 -1 4 2 4 -0 -6 1 -1 -0 -7 -15 -2 -1 -5 2 1 2 5 2 1
-0 -1 -2 1 0 -3 3 2 0 -1 3 2 5 -1 3 3 3 3 3 -1 -1 -2 -2 -1 -1 1 5 -4 1 -10 12 8 9 -10 5 -1 4 4 1 -1 -3 1 -2 -4
2 4 1 2 1 -1 -1 -0 -0 -0 2 -0 -1 3 1 1 -1 -2 1 -1 -1 1 1 -0 2 -2 -9 -9 3 -2 -6 -4 -2 -2 -4 3 4 2 -1 -0 1 1 2 1
-1 0 2 2 -0 2 3 3 1 1 -0 -3 0 4 0 2 0 1 1 0 0 -0 1 1 1 -1 1 4 2 0 1 7 -1 3 3 -1 -0 3 2 3 -2 -6 -7 -5
0 0 1 1 5 5 9 1 -1 -2 2 1 1 1 -1 -1 2 0 -0 1 1 0 -1 -1 -0 -2 -1 -2 -2 1 -0 -1 6 0 -1 1 5 6 4 3 2 1 -0 -2
1 1 1 3 0 8 8 2 2 3 5 1 -1 1 1 -0 5 2 -1 0 1 1 -1 -0 1 1 2 2 3 2 3 5 5 3 7 1 -5 -3 1 0 2 3 3 1
1 0 4 2 1 -1 6 1 -2 1 7 1 -0 0 -1 2 3 6 -2 0 0 1 1 1 0 1 1 0 2 -0 -3 -4 -4 -1 -3 -0 2 -1 -3 -2 -4 -1 -1 -0
1 1 1 0 0 6 2 -1 -1 13 12 0 -1 1 1 -1 5 -3 -1 0 0 2 -0 -0 -1 -2 1 0 -2 -1 -1 -8 -1 0 1 1 -2 0 1 4 1 -1 -1 -0
0 1 -0 2 2 6 -0 5 10 3 5 -1 1 1 -1 -2 -0 -1 -2 1 2 1 0 -1 0 -1 -0 2 1 2 1 6 3 -1 1 1 3 0 -0 -2 -4 -3 -5 -2
6 6 6 7 9 3 2 -2 4 1 -4 2 -4 0 -2 -2 -1 -0 2 2 0 -0 -0 -0 0 4 2 -4 1 -1 0 -0 -1 0 -4 -2 -2 -5 -5 -4 -4 -4 2 0
2 -1 -0 6 5 1 1 1 0 -0 -1 1 0 -1 -1 -0 1 0 0 1 1 0 -1 -1 -1 -1 0 -3 -0 -2 -2 -4 1 -0 -5 -2 -4 -4 -4 -5 -7 -6 -6 -7
4 0 -1 3 3 2 2 1 -0 1 1 -0 0 -1 -1 -2 -0 -1 -2 -3 -1 -0 -1 -2 -2 -4 -4 -3 -0 0 -0 1 0 -2 -1 -2 -2 -1 -0 -2 -2 -3 -3 -2
-2 -3 -0 1 -6 1 -4 0 -1 -2 -2 -1 -3 -2 -0 -1 -1 -1 -1 -1 -0 -1 -0 -1 -2 -1 -1 -1 -3 -2 -1 -2 -1 -2 -3 -4 -3 -2 -2 -1 7 -5 -0 -3
Height
1506 1501 1492 1491 1496 1498 1498 1495 1488 1485 1487 1487 1482 1470 1462 1465 1463 1458 1455 1453 1451 1448 1447 1445 1443 1442 1439 1436 1433 1436 1439 1441 1443 1446 1451 1457 1460 1464 1466 1472 1476 1480 1484 1488
1502 1493 1497 1501 1501 1500 1496 1492 1482 1478 1483 1485 1476 1466 1457 1456 1455 1461 1463 1460 1457 1453 1449 1445 1441 1437 1434 1429 1426 1425 1429 1434 1436 1438 1440 1446 1453 1457 1460 1465 1469 1474 1476 1480
1496 1494 1501 1500 1496 1494 1489 1488 1483 1479 1479 1475 1471 1461 1446 1451 1459 1471 1471 1467 1462 1457 1451 1445 1441 1435 1430 1426 1420 1418 1420 1425 1429 1432 1435 1438 1447 1452 1455 1456 1461 1464 1468 1472
1496 1498 1499 1497 1495 1494 1487 1483 1486 1483 1478 1469 1470 1462 1452 1456 1455 1468 1472 1469 1464 1458 1451 1445 1439 1433 1426 1420 1416 1415 1416 1416 1420 1424 1427 1428 1431 1440 1446 1452 1454 1458 1461 1465
1490 1495 1496 1495 1492 1493 1486 1489 1486 1484 1478 1471 1457 1458 1436 1460 1468 1474 1473 1471 1465 1458 1451 1444 1438 1431 1423 1417 1413 1412 1411 1410 1410 1415 1417 1419 1421 1434 1442 1446 1446 1450 1454 1460
1493 1496 1499 1492 1492 1493 1489 1487 1481 1479 1476 1469 1451 1456 1454 1482 1488 1482 1478 1472 1465 1458 1451 1445 1438 1429 1422 1416 1412 1410 1409 1408 1406 1408 1413 1411 1414 1430 1436 1442 1441 1445 1449 1453
1486 1490 1493 1494 1490 1489 1488 1484 1473 1472 1469 1454 1445 1451 1492 1493 1493 1489 1481 1474 1467 1460 1452 1446 1439 1429 1422 1417 1412 1408 1406 1406 1406 1406 1411 1417 1430 1429 1433 1434 1434 1441 1444 1446
1483 1481 1487 1487 1486 1481 1480 1481 1475 1474 1457 1451 1447 1458 1489 1497 1496 1491 1486 1480 1472 1462 1456 1449 1441 1432 1424 1419 1414 1410 1405 1407 1404 1404 1410 1414 1418 1423 1424 1425 1429 1438 1440 1441
1493 1482 1482 1485 1483 1485 1482 1483 1474 1476 1464 1463 1449 1487 1493 1490 1493 1493 1488 1483 1476 1467 1459 1452 1443 1434 1427 1421 1416 1411 1408 1406 1403 1402 1406 1408 1411 1414 1417 1422 1428 1433 1431 1435
1492 1496 1479 1479 1480 1479 1480 1480 1480 1474 1469 1460 1448 1477 1482 1493 1497 1495 1490 1486 1481 1471 1463 1455 1445 1436 1429 1425 1420 1413 1409 1406 1400 1410 1408 1410 1411 1413 1417 1421 1425 1422 1425 1429
1492 1497 1478 1474 1475 1478 1482 1476 1476 1468 1463 1459 1450 1478 1502 1504 1503 1500 1497 1491 1484 1477 1468 1458 1449 1441 1435 1428 1420 1414 1412 1414 1417 1413 1404 1413 1411 1414 1419 1416 1415 1417 1424 1424
1489 1494 1484 1473 1468 1471 1470 1470 1465 1467 1458 1452 1462 1482 1507 1506 1506 1504 1500 1495 1489 1481 1473 1462 1454 1448 1435 1432 1423 1418 1415 1414 1415 1416 1417 1408 1410 1415 1416 1414 1416 1418 1419 1425
1489 1488 1467 1461 1470 1470 1472 1473 1469 1466 1461 1460 1462 1486 1509 1508 1507 1505 1502 1497 1492 1485 1476 1466 1458 1452 1445 1440 1432 1427 1426 1426 1425 1420 1414 1417 1418 1422 1418 1418 1419 1421 1422 1420
1489 1482 1484 1480 1495 1493 1487 1476 1463 1464 1459 1466 1484 1499 1507 1509 1508 1507 1504 1500 1495 1489 1483 1476 1469 1461 1452 1447 1441 1439 1432 1430 1426 1421 1428 1431 1429 1427 1426 1424 1422 1420 1417 1417
1485 1484 1491 1489 1493 1495 1497 1488 1476 1475 1477 1472 1496 1502 1511 1513 1512 1512 1509 1503 1498 1493 1488 1482 1475 1467 1460 1453 1451 1447 1446 1442 1437 1440 1438 1437 1437 1434 1429 1425 1423 1421 1419 1416
1484 1480 1487 1486 1491 1492 1497 1494 1488 1487 1490 1494 1498 1507 1514 1516 1515 1513 1511 1507 1503 1499 1495 1491 1485 1478 1473 1469 1464 1457 1455 1451 1451 1447 1443 1442 1439 1435 1434 1431 1428 1425 1422 1418
1480 1482 1475 1472 1488 1486 1489 1500 1496 1494 1493 1490 1487 1506 1514 1516 1516 1516 1513 1511 1507 1503 1500 1494 1489 1486 1483 1480 1477 1473 1470 1462 1456 1452 1448 1445 1444 1441 1437 1435 1431 1427 1424 1423
1477 1478 1477 1468 1479 1473 1499 1503 1503 1500 1502 1501 1505 1510 1513 1517 1518 1518 1516 1513 1510 1507 1503 1499 1494 1490 1487 1484 1481 1476 1471 1468 1461 1456 1454 1452 1449 1445 1441 1438 1434 1431 1429 1426
1479 1479 1471 1466 1466 1490 1497 1497 1499 1496 1505 1506 1505 1510 1514 1516 1515 1517 1517 1515 1512 1510 1507 1504 1501 1496 1492 1488 1485 1480 1475 1470 1466 1461 1456 1452 1449 1448 1445 1441 1438 1435 1432 1430
1478 1477 1479 1467 1464 1466 1486 1496 1500 1499 1492 1506 1506 1506 1509 1513 1504 1516 1518 1516 1513 1512 1510 1507 1505 1502 1496 1492 1488 1483 1478 1474 1469 1466 1463 1461 1458 1455 1452 1448 1445 1442 1439 1436
1469 1470 1469 1466 1467 1481 1494 1497 1498 1489 1500 1506 1506 1506 1507 1510 1516 1519 1518 1516 1513 1513 1511 1509 1507 1503 1500 1496 1492 1487 1484 1480 1478 1473 1470 1466 1463 1460 1457 1455 1451 1448 1445 1441
1469 1468 1469 1471 1470 1472 1496 1497 1490 1498 1502 1505 1507 1509 1511 1515 1518 1519 1518 1518 1516 1514 1513 1511 1509 1505 1502 1497 1494 1492 1488 1488 1483 1478 1475 1471 1467 1463 1461 1458 1454 1451 1447 1444
1472 1475 1470 1484 1483 1494 1496 1495 1497 1499 1501 1505 1507 1511 1514 1516 1518 1519 1519 1518 1517 1516 1514 1512 1510 1508 1502 1499 1497 1493 1491 1489 1487 1481 1477 1475 1471 1467 1464 1460 1456 1454 1450 1446
1480 1481 1481 1487 1497 1497 1498 1498 1499 1501 1504 1506 1509 1511 1514 1516 1518 1519 1519 1519 1518 1517 1515 1514 1512 1509 1506 1502 1499 1496 1494 1493 1492 1485 1482 1481 1477 1475 1471 1466 1462 1458 1453 1449
1475 1480 1486 1493 1497 1499 1500 1501 1501 1502 1505 1507 1510 1512 1514 1516 1517 1518 1519 1519 1519 1518 1516 1515 1513 1511 1509 1506 1502 1499 1497 1495 1492 1488 1487 1482 1481 1477 1475 1472 1467 1463 1460 1457
1475 1478 1479 1477 1488 1491 1496 1501 1503 1504 1506 1508 1510 1513 1515 1517 1518 1519 1519 1520 1520 1518 1517 1516 1514 1512 1509 1506 1503 1501 1499 1497 1493 1491 1489 1485 1483 1480 1477 1475 1472 1467 1463 1459